Погода в Хельсинки

Финляндия     60˚10′00″N   24˚56′36″E
темп.,
°C
ветер,
м/с
пор.,
м/с
влажн.,
%
обл.,
%
осадки,
мм/ч
давл.,
гПа
погр.,
м
5 декабря, сб
сб523:00+3˚ююв61083100 0.0 1015832
02:00+2˚ююв61191100 1.3 1015653
05:00+3˚ююв61185100 1.0 1014759
08:00+4˚ю51087100 1.1 1015681
11:00+5˚ю61188100 0.1 1016700
14:00+5˚ю61187100 0.3 1016635
17:00+5˚ю61187100 0.1 1017582
20:00+5˚ю61187100 0.1 1018627
6 декабря, вс
вс623:00+5˚ю61187100 0.1 1019608
02:00+5˚ю61088100 0.1 1020572
05:00+5˚ююв51087100 0.0 1020561
08:00+6˚ю61088100 0.1 1022576
11:00+6˚ююв61087100 0.1 1022588
14:00+5˚ю5987100 0.1 1023589
17:00+5˚ю5986100 0.0 1024569
20:00+4˚ююв6982100 0.0 1025632
7 декабря, пн
пн723:00+3˚ю5979100 0.0 1025759
02:00+3˚ю5974100 0.0 1026564
05:00+2˚ю51066100 0.0 1026515
08:00+1˚ююв5106682 0.0 1027444
11:00+1˚ююв596522 0.0 1027531
14:00+2˚ююв596431 0.0 1027530
17:00+1˚ююв5106338 0.0 1026495
20:00+1˚ююв5106419 0.0 1027536
8 декабря, вт
вт823:00ю510643 0.0 1027581
02:00ю5106436 0.0 1027550
05:00ююв496521 0.0 1027425
08:00ююв596411 0.0 1027479
11:00ююв69680 0.0 1027646
14:00+1˚ююв48670 0.0 1027530
17:00юв48610 0.0 1026375
20:00ююв48590 0.0 1027412
9 декабря, ср
ср923:00ююв59610 0.0 1027445
02:00ююв59620 0.0 1027490
05:00−1˚ююв58660 0.0 1026505
08:00−1˚ююв48690 0.0 1026510
11:00−1˚ю477013 0.0 1027645
14:00−1˚ююв36728 0.0 1026539
17:00−1˚ююв35761 0.0 1026223
20:00−1˚ююв357538 0.0 1025287